sat.trackr.live / text

‹ back to catalog

STARLINK-30464

NORAD 57908 · 2023-146T

PAYLOAD ACTIVE UNKNOWN

§ Identity

Operator
Country
US
Launch date
2023-09-20
Launch site
AFETR
Launch vehicle
Mass (kg)
RCS (m²)

Purposes: comms

External: N2YO · Heavens-Above · Gunter

§ Orbital elements

Epoch: 2026-05-25T00:13:21.823104Z

Period
94.27 min
Inclination
42.9939°
Eccentricity
0.0000506
Mean motion
15.27580815 rev/d
Perigee alt
482.7 km
Apogee alt
483.4 km
Semi-major
6,861.2 km
B*
3.0973e-5
RAAN
246.9927°
Arg perigee
42.5036°
Mean anomaly
317.5854°
Rev number
14,762

§ Raw data

STARLINK-304641 57908U 23146T   26145.00928036  .00000591  00000+0  30973-4 0  99912 57908  42.9939 246.9927 0000506  42.5036 317.5854 15.27580815147622

JSON: /api/v1/satellites/57908 · /tle

For live sub-satellite position, see the globe view (requires WebGL).

§ Visibility from observer

Set your observer location to see the next 7 days of passes ≥ 10°. The values pass through the URL so the page stays shareable.

No JS? Fill the form by hand. The geolocation button needs JavaScript.